Sedona, AZ

1:13 PM MST on August 25, 2016 (GMT -0700)
Sedona

Weather History for KSEZ - March, 2013

Change the Weather History Date:

Wednesday, March 6, 2013

  Actual Average Record
Temperature  
Mean Temperature 60 °F -  
Max Temperature 69 °F 62 °F 69 °F (2013)
Min Temperature 50 °F 35 °F 41 °F (2015)
Degree Days  
Heating Degree Days 6    
Growing Degree Days 10 (Base 50)    
Moisture  
Dew Point 29 °F    
Average Humidity 36    
Maximum Humidity 47    
Minimum Humidity 20    
Precipitation  
Precipitation 0.00 in - - ()
Sea Level Pressure  
Sea Level Pressure 30.04 in    
Wind  
Wind Speed 4 mph (SSW)    
Max Wind Speed 18 mph    
Max Gust Speed 25 mph    
Visibility 10 miles    
Events      
Averages and records for this station are not official NWS values.
T = Trace of Precipitation, MM = Missing Value Source: NWS Daily Summary

Daily Weather History Graph

Daily Weather History Graph

Search for Another Location

Airport or City:

Trip Planner

Search our weather history database for the weather conditions in past years. The results will help you decide how hot, cold, wet, or windy it might be!

Date:

Astronomy

Mar. 06, 2013 Rise Set
Actual Time 6:49 AM MST 6:27 PM MST
Civil Twilight 6:24 AM MST 6:52 PM MST
Nautical Twilight 5:55 AM MST 7:22 PM MST
Astronomical Twilight 5:25 AM MST 7:51 PM MST
Moon 2:52 AM MST (3/6) 1:22 PM MST (3/6)
Length of Visible Light 12h 28m
Length of Day
11h 38m
Waning Crescent, 29% of the Moon is Illuminated
Mar 6
Waning Crescent
Mar 11
New
Mar 19
First Quarter
Mar 27
Full
Apr 2
Last Quarter

Hourly Weather History & Observations

Time (MST) Temp. Dew Point Humidity Pressure Visibility Wind Dir Wind Speed Gust Speed Precip Events Conditions
12:15 AM 53.6 °F 30.2 °F 41% 30.09 in 10.0 mi Calm Calm - N/A   Clear
12:35 AM 53.6 °F 30.2 °F 41% 30.09 in 10.0 mi Calm Calm - N/A   Clear
12:55 AM 51.8 °F 30.2 °F 44% 30.09 in 10.0 mi Calm Calm - N/A   Clear
1:15 AM 51.8 °F 30.2 °F 44% 30.08 in 10.0 mi Calm Calm - N/A   Clear
1:35 AM 53.6 °F 30.2 °F 41% 30.08 in 10.0 mi Calm Calm - N/A   Clear
1:55 AM 51.8 °F 30.2 °F 44% 30.07 in 10.0 mi Calm Calm - N/A   Clear
2:15 AM 50.0 °F 30.2 °F 47% 30.07 in 10.0 mi Calm Calm - N/A   Clear
2:55 AM 51.8 °F 30.2 °F 44% 30.06 in 10.0 mi Calm Calm - N/A   Clear
3:15 AM 51.8 °F 30.2 °F 44% 30.06 in 10.0 mi Calm Calm - N/A   Clear
3:35 AM 51.8 °F 30.2 °F 44% 30.06 in 10.0 mi Calm Calm - N/A   Clear
3:55 AM 51.8 °F 30.2 °F 44% 30.06 in 10.0 mi Calm Calm - N/A   Clear
4:15 AM 50.0 °F 30.2 °F 47% 30.06 in 10.0 mi Calm Calm - N/A   Clear
4:35 AM 51.8 °F 30.2 °F 44% 30.06 in 10.0 mi Calm Calm - N/A   Clear
4:55 AM 50.0 °F 30.2 °F 47% 30.06 in 10.0 mi Calm Calm - N/A   Clear
5:15 AM 51.8 °F 30.2 °F 44% 30.06 in 10.0 mi Calm Calm - N/A   Clear
5:35 AM 50.0 °F 30.2 °F 47% 30.06 in 10.0 mi Calm Calm - N/A   Clear
5:55 AM 50.0 °F 30.2 °F 47% 30.07 in 10.0 mi Calm Calm - N/A   Clear
6:15 AM 50.0 °F 30.2 °F 47% 30.07 in 10.0 mi Calm Calm - N/A   Clear
6:35 AM 50.0 °F 30.2 °F 47% 30.07 in 10.0 mi Calm Calm - N/A   Clear
6:55 AM 50.0 °F 30.2 °F 47% 30.08 in 10.0 mi Calm Calm - N/A   Clear
7:15 AM 50.0 °F 30.2 °F 47% 30.09 in 10.0 mi Calm Calm - N/A   Clear
7:35 AM 50.0 °F 30.2 °F 47% 30.09 in 10.0 mi Calm Calm - N/A   Clear
7:55 AM 51.8 °F 32.0 °F 47% 30.09 in 10.0 mi Calm Calm - N/A   Clear
8:15 AM 51.8 °F 32.0 °F 47% 30.10 in 10.0 mi Calm Calm - N/A   Clear
8:35 AM 53.6 °F 32.0 °F 44% 30.11 in 10.0 mi Calm Calm - N/A   Clear
8:55 AM 55.4 °F 32.0 °F 41% 30.12 in 10.0 mi Calm Calm - N/A   Clear
9:15 AM 55.4 °F 32.0 °F 41% 30.12 in 10.0 mi SSE 3.5 mph - N/A   Clear
9:55 AM 60.8 °F 32.0 °F 34% 30.11 in 10.0 mi South 4.6 mph - N/A   Clear
10:15 AM 60.8 °F 32.0 °F 34% 30.10 in 10.0 mi South 9.2 mph - N/A   Clear
10:35 AM 60.8 °F 32.0 °F 34% 30.11 in 10.0 mi SSW 8.1 mph - N/A   Clear
10:55 AM 62.6 °F 32.0 °F 32% 30.10 in 10.0 mi SSE 11.5 mph 17.3 mph N/A   Clear
11:15 AM 62.6 °F 32.0 °F 32% 30.10 in 10.0 mi South 10.4 mph 17.3 mph N/A   Clear
11:55 AM 64.4 °F 32.0 °F 30% 30.08 in 10.0 mi South 13.8 mph 17.3 mph N/A   Clear
12:15 PM 64.4 °F 32.0 °F 30% 30.06 in 10.0 mi SSE 16.1 mph 19.6 mph N/A   Clear
12:35 PM 64.4 °F 32.0 °F 30% 30.06 in 10.0 mi SW 6.9 mph 21.9 mph N/A   Clear
12:55 PM 64.4 °F 32.0 °F 30% 30.06 in 10.0 mi South 8.1 mph - N/A   Clear
1:15 PM 68.0 °F 32.0 °F 26% 30.05 in 10.0 mi South 11.5 mph 19.6 mph N/A   Clear
1:35 PM 68.0 °F 32.0 °F 26% 30.04 in 10.0 mi South 9.2 mph 16.1 mph N/A   Clear
1:55 PM 68.0 °F 30.2 °F 24% 30.02 in 10.0 mi South 11.5 mph 20.7 mph N/A   Clear
2:15 PM 69.8 °F 28.4 °F 21% 30.01 in 10.0 mi SW 12.7 mph 18.4 mph N/A   Clear
2:35 PM 68.0 °F 26.6 °F 21% 30.00 in 10.0 mi SW 11.5 mph 17.3 mph N/A   Clear
2:55 PM 68.0 °F 26.6 °F 21% 30.00 in 10.0 mi SSW 13.8 mph 24.2 mph N/A   Clear
3:15 PM 68.0 °F 26.6 °F 21% 29.99 in 10.0 mi SSW 15.0 mph 25.3 mph N/A   Clear
3:35 PM 68.0 °F 26.6 °F 21% 29.99 in 10.0 mi South 16.1 mph 21.9 mph N/A   Clear
3:55 PM 68.0 °F 24.8 °F 20% 29.98 in 10.0 mi South 12.7 mph 24.2 mph N/A   Clear
4:15 PM 68.0 °F 24.8 °F 20% 29.97 in 10.0 mi South 17.3 mph 21.9 mph N/A   Clear
4:35 PM 68.0 °F 24.8 °F 20% 29.97 in 10.0 mi South 15.0 mph 23.0 mph N/A   Clear
4:55 PM 64.4 °F 24.8 °F 22% 29.97 in 10.0 mi SSW 18.4 mph 25.3 mph N/A   Clear
5:15 PM 64.4 °F 24.8 °F 22% 29.97 in 10.0 mi SSW 16.1 mph 25.3 mph N/A   Clear
5:35 PM 62.6 °F 26.6 °F 26% 29.97 in 10.0 mi SSW 17.3 mph 24.2 mph N/A   Clear
5:55 PM 62.6 °F 26.6 °F 26% 29.97 in 10.0 mi SSW 12.7 mph 20.7 mph N/A   Clear
6:15 PM 60.8 °F 26.6 °F 27% 29.97 in 10.0 mi South 12.7 mph 19.6 mph N/A   Clear
6:35 PM 60.8 °F 26.6 °F 27% 29.97 in 10.0 mi SSW 12.7 mph 16.1 mph N/A   Clear
6:55 PM 59.0 °F 26.6 °F 29% 29.97 in 10.0 mi South 10.4 mph 18.4 mph N/A   Clear
7:15 PM 59.0 °F 26.6 °F 29% 29.98 in 10.0 mi South 11.5 mph 17.3 mph N/A   Clear
7:35 PM 57.2 °F 26.6 °F 31% 30.00 in 10.0 mi SSW 11.5 mph 18.4 mph N/A   Clear
7:55 PM 57.2 °F 26.6 °F 31% 30.00 in 10.0 mi SSW 9.2 mph - N/A   Clear
8:15 PM 55.4 °F 28.4 °F 36% 30.00 in 10.0 mi SW 9.2 mph - N/A   Clear
8:35 PM 55.4 °F 28.4 °F 36% 30.00 in 10.0 mi SSW 10.4 mph - N/A   Clear
8:55 PM 55.4 °F 28.4 °F 36% 30.00 in 10.0 mi SSW 8.1 mph - N/A   Clear
9:15 PM 55.4 °F 28.4 °F 36% 30.00 in 10.0 mi SSW 9.2 mph - N/A   Clear
9:35 PM 53.6 °F 28.4 °F 38% 30.00 in 10.0 mi South 6.9 mph - N/A   Clear
9:55 PM 53.6 °F 28.4 °F 38% 30.00 in 10.0 mi South 10.4 mph - N/A   Clear
10:15 PM 53.6 °F 30.2 °F 41% 30.00 in 10.0 mi South 4.6 mph - N/A   Clear
10:35 PM 53.6 °F 28.4 °F 38% 30.00 in 10.0 mi South 5.8 mph - N/A   Clear
10:55 PM 53.6 °F 28.4 °F 38% 30.00 in 10.0 mi Calm Calm - N/A   Clear
11:15 PM 53.6 °F 28.4 °F 38% 30.00 in 10.0 mi South 4.6 mph - N/A   Clear
11:35 PM 53.6 °F 28.4 °F 38% 30.00 in 10.0 mi South 4.6 mph - N/A   Clear
11:55 PM 53.6 °F 28.4 °F 38% 30.00 in 10.0 mi Calm Calm - N/A   Clear